Location: ?????????
(56.0167°N, 38.0667°E)
Time: 14:54:11
(UTC+00:00)

Daily predictions for brighter satellites

Satellite Brightness Start Highest point End
(mag) Time Altitude Azimuth Time Altitude Azimuth Time Altitude Azimuth
S3M 4.0 19:12:23 10° S 19:18:30 80° E 19:24:43 10° NNE
Cosmos 2112 Rocket 4.5 19:13:47 10° S 19:18:38 43° ESE 19:23:31 10° NE
Cosmos 1110 Rocket 4.2 19:14:14 10° NNW 19:19:26 66° ENE 19:24:34 10° SE
Cosmos 1933 Rocket 4.1 19:15:36 10° N 19:19:47 46° ENE 19:23:58 10° SE
Helios 1B rocket 3.7 19:18:11 10° ESE 19:21:01 24° ENE 19:23:50 10° N
NOSS 3-2 (C) 3.6 19:16:03 10° WSW 19:21:25 78° NNW 19:28:04 10° NE
Cosmos 1709 Rocket 4.3 19:15:50 10° NNW 19:22:12 74° W 19:28:34 10° S
Cosmos 1953 3.5 19:18:58 10° NNW 19:22:13 33° W 19:25:26 10° SSW
GP-B 3.7 19:18:09 10° N 19:22:27 57° W 19:26:44 10° SSW
Cosmos 1328 Rocket 3.5 19:19:11 10° S 19:23:32 88° E 19:27:53 10° NNE
Cosmos 1371 Rocket 4.3 19:19:02 10° NNW 19:24:15 65° WSW 19:29:23 10° SSE
Cosmos 2082 Rocket 2.3 19:20:05 10° NW 19:25:45 84° WSW 19:31:23 10° SSE
NOSS 2-1 (C) 4.0 19:24:06 10° S 19:27:02 24° SE 19:29:35 10° ENE
Okean 3 4.4 19:23:55 10° SSE 19:27:25 30° E 19:30:58 10° NNE
Cosmos 2184 Rocket 4.5 19:23:09 10° N 19:29:18 53° ENE 19:35:28 10° SSE
Cosmos 1452 Rocket 4.0 19:24:24 10° NNW 19:29:38 56° NE 19:34:48 10° SE
Cosmos 1441 Rocket 4.3 19:28:04 10° SE 19:30:38 22° E 19:33:13 10° NE
CENTAUR R/B 4.0 19:24:12 10° WNW 19:30:44 49° N 19:38:53 10° ENE
Cosmos 1812 2.1 19:31:59 10° N 19:33:31 26° ENE 19:34:54 11° SE
Cosmos 2278 Rocket 2.4 19:28:32 10° S 19:34:01 53° ESE 19:39:32 10° NE
Cosmos 494 Rocket 4.1 19:31:33 10° S 19:36:40 58° ESE 19:41:50 10° NNE
CZ-2C R/B 2.7 19:34:40 10° S 19:37:19 45° WSW 19:39:59 10° NNW
USA 238 DEB 3.7 19:31:31 10° SSW 19:37:35 58° SE 19:44:20 10° NE
USA 238 3.7 19:31:45 10° SSW 19:37:48 57° SE 19:44:34 10° NE
Meteor 1-21 4.3 19:32:49 10° S 19:38:27 84° ESE 19:44:12 10° NNE
Helios 1A 3.8 19:37:42 10° NNE 19:41:19 33° E 19:44:54 10° SSE
Cosmos 1331 Rocket 4.0 19:38:42 10° NNW 19:43:54 89° ENE 19:49:04 10° SSE
Cosmos 1943 Rocket 2.2 19:40:32 10° SSW 19:46:11 76° ESE 19:51:48 10° NE
Cosmos 1869 Rocket 3.7 19:47:48 10° N 19:52:06 68° ENE 19:56:19 11° SSE
Lacrosse 5 rocket 0.9 19:49:50 10° WSW 19:53:25 89° S 19:56:56 10° ENE
ARIANE 5 R/B 3.4 19:50:44 10° SE 19:54:56 45° ENE 19:59:09 10° N
CZ-2C R/B 4.2 19:55:17 10° ESE 19:59:40 28° NE 20:04:09 10° N
USA 81 4.1 19:58:03 10° N 20:03:22 88° W 20:08:36 10° S
Cosmos 1733 Rocket 3.9 20:00:02 10° N 20:04:07 41° ENE 20:08:12 10° SE
Cosmos 1515 Rocket 3.6 20:00:21 10° SSW 20:04:41 86° WNW 20:09:02 10° NNE
COSMOS 2406 3.3 20:02:00 10° NW 20:07:44 84° SW 20:13:17 11° SSE
NOSS 7 (E) 4.2 20:05:29 10° NW 20:08:43 70° SW 20:11:47 11° SE
Cosmos 1048 Rocket 4.2 20:04:19 10° S 20:09:23 54° ESE 20:14:34 10° NE
Cosmos 1680 Rocket 3.7 20:04:36 10° SSW 20:09:48 77° WNW 20:15:03 10° NNE
ALOS 2 3.1 20:06:37 10° SE 20:10:52 53° ENE 20:15:10 10° N
Okean 2 3.8 20:08:59 10° SSW 20:12:46 57° WNW 20:16:36 10° N
Cosmos 2369 Rocket 3.7 20:08:57 10° SE 20:12:53 20° E 20:16:50 10° NE
Cosmos 1400 Rocket 3.6 20:11:48 10° NNW 20:15:15 39° W 20:18:39 10° SSW
Cosmos 972 Rocket 4.2 20:11:26 10° NNW 20:17:13 76° ENE 20:22:12 11° SSE
IKONOS-2 4.4 20:16:28 10° NNE 20:20:36 86° ESE 20:24:41 10° SSW
USA 215 3.4 20:14:21 10° SE 20:20:48 60° SSW 20:27:16 10° WNW
USA 290 3.1 20:20:16 10° NNW 20:23:16 42° NE 20:26:17 10° SE
Cosmos 1656 Rocket 4.1 20:18:21 10° S 20:23:31 44° ESE 20:28:48 10° NE
ARIANE 6 FM1 Upper Stage 4.1 20:22:12 13° SSE 20:24:45 21° SE 20:27:53 10° ENE
Cosmos 1315 Rocket 3.7 20:21:38 10° N 20:25:14 38° ENE 20:28:46 10° SE
Cosmos 2074 Rocket 4.2 20:21:52 10° NNW 20:28:03 71° W 20:33:59 11° S
Cosmos 1302 Rocket 4.1 20:23:20 10° NNW 20:28:39 89° WSW 20:33:36 12° SSE
NOSS 2-1 (E) 2.7 20:28:39 10° SW 20:32:12 73° SE 20:35:16 10° NE
PSLV R/B 4.4 20:33:29 10° NNE 20:37:57 43° E 20:41:46 13° SSE
NOSS 3-1 (C) 4.0 20:34:30 13° S 20:37:58 28° ESE 20:42:39 10° ENE
Cosmos 2344 3.6 20:31:00 10° WSW 20:38:27 82° NW 20:45:56 10° NE
Okean 1-7 3.7 20:35:56 13° SSE 20:39:20 41° E 20:43:21 10° NNE
Spot 4 3.9 20:38:57 13° S 20:43:15 75° WSW 20:48:07 10° NNW
USA 276 3.0 20:42:12 10° SW 20:44:09 19° SSE 20:46:14 10° ESE
Cosmos 220 Rocket 4.2 20:46:02 10° NNW 20:50:15 67° ENE 20:54:16 11° SE
USA 59 Rocket -0.2 20:47:49 10° WSW 20:50:58 56° NNW 20:53:51 10° NE
Cosmos 1328 3.4 20:48:02 14° S 20:51:02 84° ESE 20:54:35 10° NNE
Lacrosse 4 Rocket 1.4 20:48:32 10° NW 20:52:46 86° NE 20:56:58 10° SE
Helios 1B rocket 2.9 20:51:01 13° SSW 20:53:46 39° W 20:57:03 10° NNW
NOSS 2-1 (D) 3.2 20:52:34 10° WSW 20:55:49 60° NNW 20:58:45 10° NE
Cosmos 2218 Rocket 4.4 20:50:17 10° N 20:56:37 62° ENE 21:02:35 11° SSE
Nadezhda 1 Rocket 4.0 20:51:27 12° S 20:57:16 84° E 21:03:35 10° NNE
Cosmos 1992 Rocket 4.0 20:52:53 10° NNW 20:58:06 87° WSW 21:02:55 12° SSE
COSMOS 2455 4.1 20:55:28 12° SSE 20:59:39 25° ESE 21:04:22 10° ENE
ATLAS 5 CENTAUR R/B 1.4 20:58:21 16° S 21:00:13 33° SE 21:03:07 10° ENE
Meteor 1-24 Rocket 4.2 20:59:01 13° S 21:04:14 56° E 21:10:07 10° NNE
Cosmos 1441 Rocket 4.3 21:01:26 10° SW 21:04:22 32° WNW 21:07:20 10° N
GEOS 3 Rocket 3.8 21:00:17 10° SE 21:05:38 67° SW 21:11:02 10° NW
ACS3 Solar Sail 2.6 21:03:20 10° NNE 21:08:29 34° E 21:13:26 11° SSE
Cosmos 2082 Rocket 3.9 21:05:07 10° NW 21:09:02 20° W 21:12:57 10° SW
USA 308 3.0 21:07:45 13° SSW 21:10:07 33° SSE 21:13:46 10° E
NOSS 2-1 (C) 3.6 21:12:24 10° WSW 21:15:36 50° NNW 21:18:30 10° NE
Helios 1A 4.2 21:12:22 10° N 21:16:00 35° WNW 21:19:37 10° SW
NOSS 2-2 (D) 4.4 21:13:50 10° NW 21:16:52 40° NNE 21:20:34 10° E
Cosmos 2278 Rocket 3.4 21:12:50 10° WSW 21:18:15 44° NW 21:23:42 10° NNE
MetOp-A 3.2 21:15:10 15° SSE 21:18:18 86° WSW 21:22:06 10° NNW
Cosmos 1869 3.0 21:16:51 10° N 21:20:19 71° ENE 21:23:05 15° SSE
CENTAUR R/B 3.7 21:15:18 10° WNW 21:22:38 61° NNE 21:31:33 10° ESE
NOSS 2-2 (C) 3.4 21:20:08 10° NW 21:23:24 68° NE 21:27:35 10° ESE
Cosmos 614 Rocket 4.1 21:18:39 10° SSW 21:23:44 76° WNW 21:28:49 10° NNE
SL-8 Rocket 4.0 21:18:00 10° NNW 21:24:11 82° W 21:29:41 13° S
SL-4 R/B 2.5 21:22:41 15° SSW 21:24:32 23° SSE 21:27:08 10° ESE
SL-12 R/B(2) 4.5 21:16:47 10° SSW 21:24:50 66° SE 21:34:49 10° NE
Meteor 2-5 Rocket 4.0 21:21:58 14° S 21:27:03 69° E 21:32:58 10° NNE
Cosmos 1174 3.9 21:23:56 10° WSW 21:27:34 60° NW 21:30:44 10° NE
USA 238 DEB 4.3 21:22:14 10° WSW 21:28:36 61° NNW 21:35:44 10° ENE
USA 238 4.3 21:22:27 10° WSW 21:28:49 62° NNW 21:35:57 10° ENE
Lacrosse 5 rocket 1.0 21:26:29 10° W 21:30:02 77° N 21:33:30 10° E
Cosmos 1300 Rocket 4.0 21:25:58 10° N 21:30:16 57° ENE 21:34:16 11° SSE
CZ-2C R/B 4.4 21:25:42 10° N 21:30:17 52° WNW 21:34:51 10° SW
Cosmos 1943 Rocket 3.9 21:25:18 10° W 21:30:25 34° NW 21:35:32 10° NNE
ARIANE 5 R/B 3.9 21:27:49 12° SSW 21:31:23 30° W 21:35:19 10° NNW
SL-8 R/B 4.3 21:29:51 10° WSW 21:34:04 33° S 21:38:19 10° ESE
CZ-2C R/B 3.1 21:28:50 10° NNE 21:34:19 80° ESE 21:38:51 14° SSW
Cosmos 1833 4.3 21:32:51 10° NW 21:38:27 63° WSW 21:43:41 12° SSE
Cosmos 2341 Rocket 4.1 21:32:18 10° NNW 21:38:32 70° W 21:44:01 13° S
CZ-2C R/B 2.7 21:34:58 14° S 21:39:31 69° WSW 21:44:51 10° NNW
BREEZE-M DEB (TANK) 3.9 21:29:17 10° W 21:40:02 39° SW 21:43:57 10° SE
Cosmos 1733 Rocket 4.3 21:37:55 10° NNW 21:41:39 29° W 21:45:08 11° SSW
SAR-Lupe-2 4.3 21:42:23 16° SSW 21:44:34 34° W 21:47:34 10° NNW
ALOS 2 4.1 21:44:00 11° SSW 21:47:28 26° W 21:51:10 10° NW
Meteor 2-13 Rocket 4.5 21:43:01 13° S 21:48:32 89° W 21:54:41 10° NNE
Cosmos 2297 Rocket 3.4 21:44:12 10° NNW 21:49:37 43° NE 21:55:00 10° ESE
Cosmos 1707 Rocket 4.1 21:45:49 12° SSW 21:49:50 54° WNW 21:54:12 10° N
Cosmos 2228 Rocket 3.2 21:48:39 13° SSW 21:52:28 69° WNW 21:56:55 10° N
Cosmos 1703 Rocket 3.7 21:49:16 15° S 21:52:54 70° E 21:57:19 10° NNE
OPS 8737 4.1 21:49:44 10° NW 21:53:02 71° SW 21:56:07 10° SE
Landsat 5 3.8 21:49:45 10° NNE 21:53:20 44° E 21:56:17 14° S
Cosmos 1356 Rocket 3.9 21:49:54 10° NNW 21:53:46 46° W 21:56:55 15° SSW
Cosmos 2369 Rocket 2.2 21:50:39 11° SSW 21:56:07 85° ESE 22:01:47 10° NE
USA 290 4.0 21:54:47 10° WNW 21:57:06 19° WSW 21:58:47 13° SW
Cosmos 2297 3.7 21:54:48 11° SSW 22:00:18 81° ESE 22:06:03 10° NE
Cosmos 1315 Rocket 4.1 21:57:25 10° NW 22:00:37 26° W 22:03:25 12° SW
ARIANE 6 FM1 Upper Stage 2.6 21:59:06 10° SW 22:03:16 87° SSE 22:07:23 10° ENE
USA 215 4.3 22:00:17 13° S 22:04:46 25° SW 22:09:59 10° WNW
Cosmos 1656 Rocket 4.5 22:01:42 10° WSW 22:07:04 50° NW 22:12:32 10° NNE
Cosmos 2263 Rocket 4.5 22:03:26 10° NNW 22:08:10 27° NNE 22:12:55 10° E
Cosmos 540 Rocket 3.7 22:03:40 10° NNW 22:08:47 73° ENE 22:13:51 10° SE
USA 276 3.0 22:14:09 10° WSW 22:16:20 22° S 22:18:40 10° SE
Okean 1-7 4.5 22:12:44 10° SW 22:16:27 29° WNW 22:20:11 10° N
USA 32 4.4 22:11:33 10° N 22:16:46 65° E 22:21:57 10° SSE
Cosmos 1908 Rocket 4.5 22:18:18 10° NNW 22:22:23 36° W 22:25:58 12° SSW
NOSS 3-1 (A) 3.3 22:18:34 12° SSW 22:22:53 55° SE 22:28:42 10° NE
NOSS 3-1 (C) 3.2 22:22:59 10° WSW 22:27:56 81° NW 22:34:10 10° NE
Lacrosse 4 Rocket 3.1 22:27:07 10° WNW 22:30:00 18° WSW 22:32:24 12° SSW
Nadezhda 3 Rocket 4.1 22:24:15 11° S 22:30:10 76° E 22:36:30 10° NNE
Cosmos 1346 Rocket 3.5 22:27:05 11° SSE 22:30:20 40° E 22:33:49 10° NNE
DELTA 2 DEB (DPAF) 4.1 22:27:12 10° NNE 22:30:40 49° ESE 22:33:46 12° S
USA 308 2.5 22:28:18 10° WSW 22:31:47 62° S 22:35:59 10° E
Cosmos 2181 Rocket 4.3 22:28:01 11° SSW 22:34:01 67° WNW 22:40:28 10° N
ADEOS Rocket 4.1 22:30:19 10° NNE 22:36:03 36° E 22:41:18 10° SSE
Cosmos 1818 3.6 22:30:48 10° SW 22:36:14 85° SE 22:41:45 10° NE
NOSS 2-2 (E) 3.1 22:32:57 10° NW 22:36:17 86° NE 22:40:35 10° SE
USA 59 Rocket 1.9 22:37:36 10° WNW 22:39:58 21° N 22:42:22 10° NE
Cosmos 1782 Rocket 4.2 22:37:27 10° NNW 22:41:37 42° W 22:45:24 12° SSW
ATLAS 5 CENTAUR R/B 2.0 22:39:07 10° W 22:42:01 41° NNW 22:45:18 10° NE
COSMOS 2455 2.9 22:38:51 10° SW 22:44:53 88° SE 22:50:57 10° NE
Cosmos 304 Rocket 4.2 22:40:42 11° S 22:45:03 53° ESE 22:49:43 10° NE
Cosmos 1140 Rocket 3.5 22:43:28 11° SSW 22:48:19 85° ESE 22:53:29 10° NNE
ACS3 Solar Sail 2.1 22:45:28 10° N 22:50:58 55° WNW 22:56:35 10° SW
Cosmos 1656 4.5 22:46:59 10° S 22:52:05 41° ESE 22:57:17 10° NE
CZ-4C R/B 3.2 22:49:37 10° NNE 22:53:16 69° WNW 22:56:38 11° SSW
Cosmos 1763 Rocket 3.7 22:50:25 10° NW 22:55:19 50° WSW 23:00:10 10° S
Cosmos 371 Rocket 3.6 22:52:11 11° S 22:56:48 58° ESE 23:01:33 10° NE
SL-4 R/B 1.9 22:58:21 10° WSW 23:01:18 36° S 23:04:13 10° ESE
Cosmos 2227 Rocket 3.0 22:58:28 10° NNW 23:04:04 57° NE 23:09:38 10° SE
NOSS 2-2 (D) 3.5 23:02:35 10° WNW 23:05:56 45° SW 23:10:14 10° SSE
Lacrosse 5 rocket 1.0 23:03:05 10° WNW 23:06:30 50° SSW 23:09:47 10° SE
SJ 16-02 1.7 23:02:31 10° S 23:06:40 53° ESE 23:10:49 10° NNE
PSLV R/B 3.8 23:03:28 10° NNE 23:07:22 85° ESE 23:11:12 10° SSW
Cosmos 1605 Rocket 4.1 23:01:05 10° N 23:07:25 84° ENE 23:13:38 10° SSE
CZ-2D R/B 4.4 23:04:34 10° NE 23:08:16 18° E 23:11:55 10° SE
CENTAUR R/B 3.3 23:05:55 10° NW 23:13:48 73° SW 23:23:05 10° SE
Cosmos 921 Rocket 3.0 23:10:30 10° SSW 23:14:41 75° WNW 23:18:52 10° NNE
Spot 1 4.5 23:10:56 10° NNE 23:15:55 80° ESE 23:20:42 10° SSW
Iridium 82 4.4 23:15:21 11° SSW 23:17:59 47° W 23:20:45 10° N
IDEFIX/ARIANE 42P 2.9 23:13:43 10° NNE 23:18:57 65° ESE 23:24:08 10° S
Cosmos 1455 Rocket 4.2 23:18:08 10° N 23:22:17 44° ENE 23:26:27 10° SE
FENGYUN 3A 4.1 23:18:12 10° NNE 23:23:30 57° ESE 23:28:46 10° S
Cosmos 2251 Rocket 4.4 23:19:31 10° S 23:24:36 45° ESE 23:29:41 10° NE
Cosmos 1378 Rocket 3.5 23:22:37 10° SSW 23:26:53 88° WNW 23:31:12 10° NNE
Cosmos 405 Rocket 2.2 23:24:50 10° S 23:27:47 71° ESE 23:30:46 10° NNE
Geosat 4.1 23:23:34 10° NNE 23:28:35 75° NW 23:33:34 10° SW
H-2A R/B 4.1 23:24:33 10° NE 23:28:41 23° E 23:32:44 10° SE
MSX 4.0 23:23:23 10° NNE 23:29:11 77° ESE 23:34:57 10° SSW
Aureole 3 4.5 23:23:39 10° S 23:30:05 90° W 23:35:46 10° NNE
Cosmos 2228 4.4 23:28:46 10° N 23:32:46 39° ENE 23:36:45 10° SE
SeaSat 1 3.5 23:28:06 10° ESE 23:32:50 51° NE 23:37:35 10° NNW
Cosmos 2297 Rocket 2.4 23:28:19 10° NW 23:33:50 54° WSW 23:39:19 10° S
ADEOS II 4.3 23:30:41 10° NE 23:34:36 21° E 23:38:30 10° SE
Cosmos 468 Rocket 4.3 23:30:22 10° NW 23:35:16 47° WSW 23:40:08 10° S
Cosmos 1782 3.3 23:32:38 10° N 23:36:06 53° ENE 23:39:33 10° SSE
BREEZE-M DEB (TANK) 4.0 23:21:54 10° WSW 23:36:32 50° S 23:40:34 10° ESE
Cosmos 1437 Rocket 3.7 23:34:55 10° N 23:38:15 42° ENE 23:41:31 10° SE
NPP 3.9 23:34:17 10° NNE 23:39:42 73° ESE 23:45:06 10° S
Cosmos 2369 Rocket 3.7 23:35:49 10° W 23:40:47 31° NNW 23:45:47 10° NNE
Meteor 1-11 4.4 23:36:22 10° SSW 23:42:00 72° WNW 23:47:47 10° NNE
